Weather History for Pine Bluff, AR

Change the Weather History Date:

Thursday, September 13, 2012

  Actual Average Record
Temperature  
Mean Temperature 77 °F 75 °F  
Max Temperature 88 °F 87 °F 102 °F (1939)
Min Temperature 65 °F 64 °F 46 °F (1902)
Degree Days  
Heating Degree Days 0 0  
Month to date heating degree days 0 0  
Since 1 July heating degree days 0 0  
Cooling Degree Days 12 10  
Month to date cooling degree days 192 159  
Year to date cooling degree days 2218 1917  
Growing Degree Days 27 (Base 50)    
Moisture  
Dew Point 69 °F    
Average Humidity 77    
Maximum Humidity 100    
Minimum Humidity 53    
Precipitation  
Precipitation 0.00 in 0.09 in 2.24 in (1898)
Month to date precipitation 1.63 1.01  
Year to date precipitation 32.12 34.20  
Snow  
Snow 0.00 in 0.00 in - ()
Month to date snowfall 0.0 0.0  
Since 1 July snowfall 0.0 0.0  
Since 1 September snowfall 0.0 0.0  
Snow Depth 0.00 in    
Sea Level Pressure  
Sea Level Pressure 30.14 in    
Wind  
Wind Speed 4 mph (SE)    
Max Wind Speed 13 mph    
Max Gust Speed 16 mph    
Visibility 9 miles    
Events      
T = Trace of Precipitation, MM = Missing Value Source: NWS Daily Summary

Daily Weather History Graph

Daily Weather History Graph

Search for Another Location

Airport:

Trip Planner

Search our weather history database for the weather conditions in past years. The results will help you decide how hot, cold, wet, or windy it might be!

Date:

Astronomy

Sep. 13, 2012 Rise Set
Actual Time 6:49 AM CDT 7:16 PM CDT
Civil Twilight 6:24 AM CDT 7:41 PM CDT
Nautical Twilight 5:55 AM CDT 8:11 PM CDT
Astronomical Twilight 5:25 AM CDT 8:41 PM CDT
Moon 4:14 AM CDT (9/13) 5:36 PM CDT (9/13)
Length of Visible Light 13h 16m
Length of Day
12h 26m
Waning Crescent, 7% of the Moon is Illuminated
Sep 13
Waning Crescent
Sep 15
New
Sep 22
First Quarter
Sep 29
Full
Oct 8
Last Quarter

Hourly Weather History & Observations

Time (CDT) Temp. Heat Index Dew Point Humidity Pressure Visibility Wind Dir Wind Speed Gust Speed Precip Events Conditions
12:53 AM 66.0 °F - 64.0 °F 93% 30.11 in 9.0 mi Calm Calm - N/A   Clear
1:53 AM 66.0 °F - 64.0 °F 93% 30.11 in 10.0 mi SE 3.5 mph - N/A   Clear
2:53 AM 66.0 °F - 64.0 °F 93% 30.11 in 10.0 mi ESE 3.5 mph - N/A   Clear
3:53 AM 66.0 °F - 64.9 °F 96% 30.11 in 9.0 mi ESE 4.6 mph - N/A   Clear
4:53 AM 66.9 °F - 66.0 °F 97% 30.12 in 7.0 mi Calm Calm - N/A   Scattered Clouds
5:53 AM 68.0 °F - 66.9 °F 96% 30.14 in 7.0 mi ESE 3.5 mph - N/A   Scattered Clouds
6:53 AM 66.9 °F - 66.0 °F 97% 30.15 in 4.0 mi Calm Calm - N/A   Clear
7:53 AM 70.0 °F - 69.1 °F 97% 30.16 in 6.0 mi SSE 3.5 mph - N/A   Clear
8:46 AM 73.4 °F - 69.8 °F 88% 30.17 in 10.0 mi South 8.1 mph - N/A   Mostly Cloudy
8:53 AM 73.9 °F - 70.0 °F 87% 30.17 in 10.0 mi South 6.9 mph - N/A   Mostly Cloudy
9:28 AM 75.2 °F - 71.6 °F 89% 30.18 in 10.0 mi SE 6.9 mph - N/A   Overcast
9:53 AM 77.0 °F - 71.1 °F 82% 30.18 in 10.0 mi SE 9.2 mph - N/A   Overcast
10:53 AM 80.1 °F 83.2 °F 70.0 °F 71% 30.18 in 10.0 mi SE 9.2 mph - N/A   Mostly Cloudy
11:42 AM 80.6 °F 84.6 °F 71.6 °F 74% 30.18 in 10.0 mi South 10.4 mph - N/A   Scattered Clouds
11:53 AM 81.0 °F 84.9 °F 71.1 °F 72% 30.18 in 10.0 mi SSW 11.5 mph - N/A   Scattered Clouds
12:53 PM 84.0 °F 89.6 °F 72.0 °F 67% 30.16 in 10.0 mi South 5.8 mph - N/A   Scattered Clouds
1:53 PM 84.0 °F 88.4 °F 70.0 °F 63% 30.14 in 10.0 mi Calm Calm - N/A   Mostly Cloudy
2:53 PM 86.0 °F 90.7 °F 70.0 °F 59% 30.10 in 10.0 mi South 5.8 mph - N/A   Scattered Clouds
3:53 PM 88.0 °F 92.1 °F 69.1 °F 53% 30.09 in 10.0 mi SE 6.9 mph - N/A   Partly Cloudy
4:53 PM 87.1 °F 90.6 °F 68.0 °F 53% 30.07 in 10.0 mi South 5.8 mph - N/A   Partly Cloudy
5:53 PM 81.0 °F 84.4 °F 70.0 °F 69% 30.09 in 10.0 mi NNE 6.9 mph - 0.00 in   Overcast
6:53 PM 80.6 °F 83.9 °F 69.8 °F 70% 30.10 in 10.0 mi ESE 5.8 mph - N/A   Overcast
7:53 PM 78.1 °F - 71.1 °F 79% 30.12 in 10.0 mi SSE 4.6 mph - N/A   Scattered Clouds
8:53 PM 75.9 °F - 69.1 °F 79% 30.14 in 10.0 mi South 3.5 mph - N/A   Partly Cloudy
9:53 PM 72.0 °F - 70.0 °F 93% 30.15 in 10.0 mi ENE 4.6 mph - N/A   Clear
10:53 PM 71.1 °F - 69.1 °F 93% 30.17 in 10.0 mi Calm Calm - N/A   Clear
11:53 PM 71.1 °F - 69.1 °F 93% 30.17 in 10.0 mi Calm Calm - N/A   Clear